Location: Juzet
(42.9779°N, 0.7597°E)
Time: 18:01:14
(UTC+00:00)

ATLAS 5 CENTAUR R/B - Pass Details

Date: 14 July 2020
Orbit: 274 x 14305 km, 60.7° (Epoch: 11 August)

Event Time Altitude Azimuth Distance (km) Brightness Sun altitude
Rises 02:42:17 0° 311° (NW) 2,679 5.4 -15.7°
Reaches altitude 10° 02:43:41 10° 306° (NW) 2,096 4.7 -15.6°
Maximum altitude 02:47:55 54° 228° (SW) 1,445 3.5 -15.1°
Drops below altitude 10° 03:03:11 10° 157° (SSE) 7,145 7.2 -13.2°
Sets 03:13:10 0° 156° (SSE) 10,464 8.1 -12.0°
